Location: Zagreb
(45.8000°N, 16.0000°E)
Time: 15:39:28
(UTC+02:00)

Vanguard 1 - Pass Details

Date: 10 August 2022
Orbit: 649 x 3832 km, 34.2° (Epoch: 25 September)

Event Time Altitude Azimuth Distance (km) Brightness Sun altitude
Rises 10:24:57 0° 277° (W) 7,554 14.2 45.5°
Reaches altitude 10° 10:30:06 10° 272° (W) 6,746 14.1 46.3°
Maximum altitude 10:51:11 46° 209° (SSW) 4,484 14.0 49.3°
Drops below altitude 10° 11:08:51 10° 144° (SE) 5,708 14.8 51.6°
Sets 11:12:48 0° 138° (SE) 6,360 14.8 52.1°
